sat.trackr.live / text

‹ back to catalog

IRNSS-1B

NORAD 39635 · 2014-017A

PAYLOAD ACTIVE UNKNOWN

§ Identity

Operator
Country
IND
Launch date
2014-04-04
Launch site
SRILR
Launch vehicle
Mass (kg)
RCS (m²)
6.31

Purposes: comms, nav

External: N2YO · Heavens-Above · Gunter

§ Orbital elements

Epoch: 2026-09-20T00:04:40.431072Z

Period
1,436.09 min
Inclination
28.7637°
Eccentricity
0.0020006
Mean motion
1.00272238 rev/d
Perigee alt
35,702.1 km
Apogee alt
35,870.8 km
Semi-major
42,164.6 km
B*
0.0000e+0
RAAN
238.7746°
Arg perigee
191.5247°
Mean anomaly
344.8131°
Rev number
4,574

§ Raw data

IRNSS-1B1 39635U 14017A   26263.00324573  .00000117  00000+0  00000+0 0  99992 39635  28.7637 238.7746 0020006 191.5247 344.8131  1.00272238 45744

JSON: /api/v1/satellites/39635 · /tle

For live sub-satellite position, see the globe view (requires WebGL).

§ Visibility from observer

Set your observer location to see the next 7 days of passes ≥ 10°. The values pass through the URL so the page stays shareable.

No JS? Fill the form by hand. The geolocation button needs JavaScript.